{"data":{"norad_id":49747,"epoch":"2026-09-19T18:52:13.667520Z","epoch_age_seconds":106944,"freshness":"FRESH","line1":"1 49747U 21115Z   26262.78626930  .00014502  00000+0  80773-3 0  9999","line2":"2 49747  53.1620 355.7720 0001228  42.6354 317.4735 15.13855407264850","mean_motion":15.13855407,"eccentricity":0.0001228,"inclination_deg":53.162,"raan_deg":355.772,"arg_perigee_deg":42.6354,"mean_anomaly_deg":317.4735,"bstar":0.00080773,"rev_number":26485,"period_min":95.121369804639,"perigee_km":523.60799729603,"apogee_km":525.30327404735,"semimajor_km":6902.5926356717,"source":"CELESTRAK","updated_at":"2026-09-20T09:00:39.407706Z"}}